Weather History for Fredericksburg, TX

Change the Weather History Date:

Tuesday, June 11, 2013

  Actual Average (KSAT) Record (KSAT)
Temperature  
Mean Temperature 81 °F 82 °F  
Max Temperature 90 °F 92 °F 104 °F (1942)
Min Temperature 71 °F 72 °F 58 °F (1955)
Degree Days  
Heating Degree Days 0 0  
Month to date heating degree days 0  
Since 1 June heating degree days 0  
Since 1 July heating degree days 1496  
Cooling Degree Days 16 17  
Month to date cooling degree days 180  
Year to date cooling degree days 809  
Since 1 June cooling degree days 180  
Growing Degree Days 31 (Base 50)    
Moisture  
Dew Point 66 °F    
Average Humidity 66    
Maximum Humidity 90    
Minimum Humidity 41    
Precipitation  
Precipitation 0.00 in 0.14 in 2.13 in (1981)
Month to date precipitation 1.56  
Year to date precipitation 13.53  
Snow  
Snow 0.00 in - - ()
Month to date snowfall  
Since 1 June snowfall  
Since 1 July snowfall  
Snow Depth -    
Sea Level Pressure  
Sea Level Pressure 30.03 in    
Wind  
Wind Speed 6 mph (South)    
Max Wind Speed 18 mph    
Max Gust Speed 26 mph    
Visibility 10 miles    
Events      
T = Trace of Precipitation, MM = Missing Value Source: NWS Daily Summary

Daily Weather History Graph

Daily Weather History Graph

Search for Another Location

Airport:

Trip Planner

Search our weather history database for the weather conditions in past years. The results will help you decide how hot, cold, wet, or windy it might be!

Date:

Astronomy

Jun. 11, 2013 Rise Set
Actual Time 6:33 AM CDT 8:37 PM CDT
Civil Twilight 6:05 AM CDT 9:04 PM CDT
Nautical Twilight 5:32 AM CDT 9:38 PM CDT
Astronomical Twilight 4:56 AM CDT 10:14 PM CDT
Moon 9:09 AM CDT (6/11) 10:51 PM CDT (6/11)
Length of Visible Light 14h 59m
Length of Day
14h 04m
Waxing Crescent, 8% of the Moon is Illuminated
Jun 11
Waxing Crescent
Jun 16
First Quarter
Jun 23
Full
Jun 29
Last Quarter
Jul 8
New

Hourly Weather History & Observations

Time (CDT) Temp. Heat Index Dew Point Humidity Pressure Visibility Wind Dir Wind Speed Gust Speed Precip Events Conditions
12:15 AM 75.4 °F - 67.6 °F 77% 30.02 in 10.0 mi South 3.5 mph - N/A   Clear
12:35 AM 74.7 °F - 68.0 °F 80% 30.02 in 10.0 mi Calm Calm - N/A   Scattered Clouds
12:55 AM 74.5 °F - 68.0 °F 80% 30.02 in 10.0 mi Calm Calm - N/A   Scattered Clouds
1:15 AM 73.8 °F - 68.2 °F 83% 30.02 in 10.0 mi South 3.5 mph - N/A   Clear
1:35 AM 73.4 °F - 68.2 °F 84% 30.02 in 10.0 mi Calm Calm - N/A   Clear
1:55 AM 73.0 °F - 68.4 °F 85% 30.02 in 10.0 mi South 3.5 mph - N/A   Clear
2:15 AM 73.4 °F - 68.7 °F 85% 30.02 in 10.0 mi South 4.6 mph - N/A   Clear
2:35 AM 73.2 °F - 68.9 °F 86% 30.02 in 10.0 mi Calm Calm - N/A   Clear
2:55 AM 73.0 °F - 68.9 °F 87% 30.02 in 10.0 mi South 4.6 mph - N/A   Clear
3:15 AM 72.9 °F - 68.9 °F 87% 30.02 in 10.0 mi South 4.6 mph - N/A   Clear
3:35 AM 72.5 °F - 69.1 °F 89% 30.02 in 10.0 mi South 5.8 mph - N/A   Scattered Clouds
3:55 AM 72.7 °F - 69.4 °F 90% 30.02 in 10.0 mi Calm Calm - N/A   Mostly Cloudy
4:15 AM 73.0 °F - 69.6 °F 89% 30.02 in 10.0 mi South 3.5 mph - N/A   Overcast
4:35 AM 72.5 °F - 69.1 °F 89% 30.02 in 10.0 mi SW 3.5 mph - N/A   Mostly Cloudy
4:55 AM 72.1 °F - 68.4 °F 88% 30.02 in 10.0 mi South 3.5 mph - N/A   Scattered Clouds
12:35 PM 84.9 °F 86.3 °F 64.4 °F 50% 30.07 in 10.0 mi South 11.5 mph 18.4 mph N/A   Scattered Clouds
12:55 PM 85.6 °F 87.1 °F 64.2 °F 49% 30.07 in 10.0 mi South 9.2 mph 18.4 mph N/A   Clear
1:15 PM 85.8 °F 87.1 °F 63.9 °F 48% 30.06 in 10.0 mi South 9.2 mph 18.4 mph N/A   Scattered Clouds
1:35 PM 86.9 °F 88.6 °F 64.9 °F 48% 30.06 in 10.0 mi SSE 11.5 mph 18.4 mph N/A   Scattered Clouds
1:55 PM 87.3 °F 88.9 °F 64.6 °F 47% 30.06 in 10.0 mi South 10.4 mph - N/A   Scattered Clouds
2:15 PM 87.8 °F 89.4 °F 64.6 °F 46% 30.05 in 10.0 mi SW 9.2 mph 16.1 mph N/A   Scattered Clouds
2:35 PM 88.5 °F 89.8 °F 63.9 °F 44% 30.04 in 10.0 mi South 15.0 mph 18.4 mph N/A   Scattered Clouds
2:55 PM 89.4 °F 90.5 °F 63.9 °F 42% 30.03 in 10.0 mi South 6.9 mph - N/A   Scattered Clouds
3:15 PM 89.1 °F 90.0 °F 63.5 °F 42% 30.03 in 10.0 mi South 12.7 mph - N/A   Scattered Clouds
3:35 PM 88.7 °F 89.8 °F 63.5 °F 43% 30.03 in 10.0 mi South 11.5 mph - N/A   Scattered Clouds
3:55 PM 89.1 °F 90.0 °F 63.5 °F 42% 30.02 in 10.0 mi South 10.4 mph 17.3 mph N/A   Scattered Clouds
4:15 PM 89.8 °F 91.0 °F 63.7 °F 42% 30.01 in 10.0 mi South 6.9 mph 17.3 mph N/A   Scattered Clouds
4:35 PM 89.6 °F 90.4 °F 62.8 °F 41% 30.02 in 10.0 mi South 11.5 mph - N/A   Scattered Clouds
4:55 PM 89.6 °F 90.8 °F 63.9 °F 42% 30.02 in 10.0 mi SSE 8.1 mph 18.4 mph N/A   Scattered Clouds
5:15 PM 88.2 °F 89.3 °F 64.0 °F 44% 30.02 in 10.0 mi South 12.7 mph 17.3 mph N/A   Mostly Cloudy
5:35 PM 90.1 °F 92.0 °F 64.8 °F 43% 30.02 in 10.0 mi SE 9.2 mph - N/A   Scattered Clouds
5:55 PM 88.7 °F 90.1 °F 64.0 °F 44% 30.01 in 10.0 mi SSE 16.1 mph 19.6 mph N/A   Scattered Clouds
6:15 PM 83.7 °F 85.5 °F 65.3 °F 54% 30.02 in 10.0 mi South 18.4 mph 26.5 mph N/A   Scattered Clouds
6:35 PM 82.8 °F 85.1 °F 66.6 °F 58% 30.02 in 10.0 mi South 16.1 mph 19.6 mph N/A   Clear
6:55 PM 83.1 °F 85.0 °F 65.3 °F 55% 30.01 in 10.0 mi SSW 13.8 mph 17.3 mph N/A   Clear
7:15 PM 82.4 °F 84.2 °F 65.3 °F 56% 30.00 in 10.0 mi South 11.5 mph - N/A   Clear
7:35 PM 81.5 °F 83.7 °F 66.2 °F 60% 30.01 in 10.0 mi South 11.5 mph - N/A   Clear
7:55 PM 80.2 °F 82.6 °F 67.1 °F 64% 30.02 in 10.0 mi South 11.5 mph - N/A   Clear
8:15 PM 78.4 °F - 67.6 °F 69% 30.02 in 10.0 mi SSW 8.1 mph - N/A   Clear
8:35 PM 77.4 °F - 64.8 °F 65% 30.03 in 10.0 mi South 5.8 mph - N/A   Clear
8:55 PM 76.3 °F - 65.7 °F 70% 30.03 in 10.0 mi South 4.6 mph - N/A   Clear
9:15 PM 75.6 °F - 67.1 °F 75% 30.03 in 10.0 mi South 4.6 mph - N/A   Clear
9:35 PM 74.5 °F - 67.1 °F 78% 30.04 in 10.0 mi South 4.6 mph - N/A   Clear
9:55 PM 74.7 °F - 67.5 °F 78% 30.04 in 10.0 mi Calm Calm - N/A   Clear
10:15 PM 73.8 °F - 67.8 °F 82% 30.05 in 10.0 mi SSE 4.6 mph - N/A   Clear
10:35 PM 73.6 °F - 68.0 °F 83% 30.06 in 10.0 mi SSE 3.5 mph - N/A   Clear
10:55 PM 73.2 °F - 67.6 °F 83% 30.06 in 10.0 mi SSE 4.6 mph - N/A   Clear
11:15 PM 72.7 °F - 67.6 °F 84% 30.06 in 10.0 mi SSE 4.6 mph - N/A   Clear
11:35 PM 72.3 °F - 67.8 °F 86% 30.07 in 10.0 mi South 4.6 mph - N/A   Clear
11:55 PM 71.8 °F - 68.0 °F 88% 30.07 in 10.0 mi South 4.6 mph - N/A   Clear